Location: Lecco
(45.8566°N, 9.3977°E)
Time: 08:01:42
(UTC+02:00)

Altair - Pass Details

Date: 17 August 2020
Orbit: 1501 x 1682 km, 47.2° (Epoch: 25 September)

Event Time Altitude Azimuth Distance (km) Brightness Sun altitude
Rises 02:04:35 0° 227° (SW) 4,858 - -30.2°
Reaches altitude 10° 02:07:48 10° 224° (SW) 3,851 - -30.1°
Exits shadow 02:16:14 56° 173° (S) 1,837 7.5 -29.8°
Maximum altitude 02:17:19 59° 148° (SSE) 1,789 7.5 -29.7°
Drops below altitude 10° 02:26:29 10° 72° (ENE) 3,722 9.9 -29.3°
Sets 02:29:33 0° 69° (ENE) 4,687 10.6 -29.1°
